When you browse on this site, cookies collect data to enhance your experience and personalize the content and advertising you see.
Visit our Privacy Policy to learn more. By continuing to use the site, you agree to this use of cookies and data.
  • In Romania
  • List of Countries
  • For 7 days
  • Water Temperature
  • Weather Map
  • Weather Widgets
  • user-avatar
    Login

    Hourly Weather Encamp

    Today, 6 June, Saturday

    Time Temperature Precipitation Wind Pressure Humidity
    00:00 +7°C° 0 mm 0 mps 620 mmHg 94%
    01:00 +7°C° 0 mm 0 mps 620 mmHg 94%
    02:00 +7°C° 0 mm 0 mps 620 mmHg 94%
    03:00 +6°C° 0 mm 0 mps 620 mmHg 94%
    04:00 +8°C° 0 mm 0 mps 620 mmHg 91%
    05:00 +9°C° 0 mm 0 mps 620 mmHg 89%
    06:00 +10°C° 0 mm 0 mps 621 mmHg 83%
    07:00 +12°C° 0 mm 1 mps 621 mmHg 76%
    08:00 +14°C° 0 mm 1 mps 622 mmHg 70%
    09:00 +16°C° 0 mm 2 mps 622 mmHg 63%
    10:00 +16°C° 0.1 mm 2 mps 622 mmHg 63%
    11:00 +16°C° 0.1 mm 2 mps 622 mmHg 63%
    12:00 +16°C° 0.1 mm 3 mps 622 mmHg 63%
    13:00 +16°C° 0.8 mm 2 mps 622 mmHg 69%
    14:00 +15°C° 0.8 mm 2 mps 621 mmHg 75%
    15:00 +14°C° 0.8 mm 2 mps 620 mmHg 81%
    16:00 +14°C° 1 mm 2 mps 620 mmHg 83%
    17:00 +13°C° 1 mm 1 mps 619 mmHg 85%
    18:00 +13°C° 1 mm 1 mps 619 mmHg 87%
    19:00 +12°C° 0.9 mm 1 mps 619 mmHg 90%
    20:00 +11°C° 0.9 mm 1 mps 619 mmHg 93%
    21:00 +10°C° 0.9 mm 1 mps 618 mmHg 97%
    22:00 +10°C° 2.5 mm 1 mps 618 mmHg 97%
    23:00 +9°C° 2.5 mm 1 mps 618 mmHg 97%

    Tomorrow, 7 June, Sunday

    Time Temperature Precipitation Wind Pressure Humidity
    00:00 +9°C° 2.5 mm 1 mps 618 mmHg 98%
    01:00 +9°C° 0.8 mm 1 mps 618 mmHg 97%
    02:00 +9°C° 0.8 mm 1 mps 618 mmHg 97%
    03:00 +8°C° 0.8 mm 1 mps 617 mmHg 96%
    04:00 +8°C° 0.4 mm 1 mps 618 mmHg 95%
    05:00 +9°C° 0.4 mm 1 mps 618 mmHg 95%
    06:00 +9°C° 0.4 mm 1 mps 618 mmHg 94%
    07:00 +9°C° 1 mm 1 mps 619 mmHg 93%
    08:00 +9°C° 1 mm 1 mps 619 mmHg 93%
    09:00 +9°C° 1 mm 1 mps 619 mmHg 92%
    10:00 +8°C° 2.2 mm 1 mps 619 mmHg 93%
    11:00 +8°C° 2.2 mm 1 mps 619 mmHg 94%
    12:00 +7°C° 2.2 mm 1 mps 619 mmHg 95%
    13:00 +8°C° 0.2 mm 1 mps 619 mmHg 93%
    14:00 +8°C° 0.2 mm 1 mps 619 mmHg 91%
    15:00 +9°C° 0.2 mm 1 mps 619 mmHg 90%
    16:00 +8°C° 0.7 mm 1 mps 619 mmHg 90%
    17:00 +8°C° 0.7 mm 1 mps 619 mmHg 91%
    18:00 +8°C° 0.7 mm 1 mps 619 mmHg 91%
    19:00 +7°C° 0.9 mm 1 mps 619 mmHg 92%
    20:00 +6°C° 0.9 mm 1 mps 619 mmHg 94%
    21:00 +6°C° 0.9 mm 1 mps 619 mmHg 95%
    22:00 +5°C° 2.9 mm 1 mps 619 mmHg 95%
    23:00 +5°C° 2.9 mm 1 mps 619 mmHg 96%

    Day after tomorrow, 8 June, Monday

    Time Temperature Precipitation Wind Pressure Humidity
    00:00 +4°C° 2.9 mm 1 mps 619 mmHg 96%
    01:00 +4°C° 0.1 mm 1 mps 619 mmHg 96%
    02:00 +4°C° 0.1 mm 1 mps 619 mmHg 96%
    03:00 +5°C° 0.1 mm 1 mps 619 mmHg 95%
    04:00 +4°C° 0 mm 2 mps 619 mmHg 95%
    05:00 +4°C° 0 mm 2 mps 619 mmHg 94%
    06:00 +4°C° 0 mm 2 mps 619 mmHg 93%
    07:00 +6°C° 0 mm 1 mps 620 mmHg 89%
    08:00 +7°C° 0 mm 1 mps 620 mmHg 85%
    09:00 +8°C° 0 mm 1 mps 621 mmHg 81%
    10:00 +9°C° 0.2 mm 1 mps 621 mmHg 80%
    11:00 +8°C° 0.2 mm 2 mps 621 mmHg 79%
    12:00 +9°C° 0.2 mm 2 mps 621 mmHg 77%
    13:00 +8°C° 0.5 mm 2 mps 621 mmHg 81%
    14:00 +7°C° 0.5 mm 2 mps 620 mmHg 85%
    15:00 +7°C° 0.5 mm 2 mps 620 mmHg 89%
    16:00 +6°C° 0.7 mm 2 mps 620 mmHg 90%
    17:00 +6°C° 0.7 mm 2 mps 620 mmHg 91%
    18:00 +5°C° 0.7 mm 2 mps 619 mmHg 93%
    19:00 +5°C° 0.6 mm 2 mps 620 mmHg 93%
    20:00 +4°C° 0.6 mm 2 mps 620 mmHg 94%
    21:00 +3°C° 0.6 mm 2 mps 620 mmHg 95%
    22:00 +3°C° 0 mm 2 mps 620 mmHg 94%
    23:00 +3°C° 0 mm 2 mps 620 mmHg 94%

    9 June, Tuesday

    Time Temperature Precipitation Wind Pressure Humidity
    00:00 +3°C° 0 mm 2 mps 620 mmHg 94%
    01:00 +3°C° 0 mm 2 mps 620 mmHg 94%
    02:00 +3°C° 0 mm 2 mps 620 mmHg 94%
    03:00 +3°C° 0 mm 2 mps 620 mmHg 94%
    04:00 +3°C° 0 mm 2 mps 620 mmHg 93%
    05:00 +4°C° 0 mm 2 mps 621 mmHg 93%
    06:00 +5°C° 0 mm 2 mps 621 mmHg 92%
    07:00 +6°C° 0 mm 2 mps 622 mmHg 83%
    08:00 +8°C° 0 mm 2 mps 623 mmHg 75%
    09:00 +10°C° 0 mm 2 mps 623 mmHg 66%
    10:00 +10°C° 0.2 mm 2 mps 623 mmHg 63%
    11:00 +12°C° 0.2 mm 2 mps 624 mmHg 61%
    12:00 +13°C° 0.2 mm 2 mps 624 mmHg 58%
    13:00 +12°C° 0.5 mm 2 mps 623 mmHg 63%
    14:00 +12°C° 0.5 mm 2 mps 623 mmHg 67%
    15:00 +12°C° 0.5 mm 2 mps 623 mmHg 72%
    16:00 +10°C° 0.6 mm 2 mps 623 mmHg 76%
    17:00 +9°C° 0.6 mm 2 mps 622 mmHg 80%
    18:00 +10°C° 0.6 mm 1 mps 622 mmHg 85%
    19:00 +7°C° 0.1 mm 2 mps 622 mmHg 87%
    20:00 +6°C° 0.1 mm 2 mps 622 mmHg 90%
    21:00 +5°C° 0.1 mm 2 mps 622 mmHg 93%
    22:00 +5°C° 0.1 mm 2 mps 622 mmHg 93%
    23:00 +5°C° 0.1 mm 2 mps 622 mmHg 94%

    10 June, Wednesday

    Time Temperature Precipitation Wind Pressure Humidity
    00:00 +4°C° 0.1 mm 2 mps 622 mmHg 94%
    01:00 +4°C° 0 mm 2 mps 622 mmHg 94%
    02:00 +4°C° 0 mm 2 mps 621 mmHg 95%
    03:00 +4°C° 0 mm 2 mps 621 mmHg 95%
    04:00 +4°C° 0 mm 2 mps 622 mmHg 93%
    05:00 +5°C° 0 mm 2 mps 622 mmHg 92%
    06:00 +5°C° 0 mm 2 mps 622 mmHg 91%
    07:00 +7°C° 0 mm 2 mps 623 mmHg 83%
    08:00 +10°C° 0 mm 1 mps 623 mmHg 74%
    09:00 +11°C° 0 mm 1 mps 624 mmHg 66%
    10:00 +12°C° 0 mm 1 mps 624 mmHg 62%
    11:00 +13°C° 0 mm 2 mps 624 mmHg 58%
    12:00 +14°C° 0 mm 2 mps 625 mmHg 54%
    13:00 +13°C° 0.2 mm 2 mps 624 mmHg 58%
    14:00 +13°C° 0.2 mm 2 mps 624 mmHg 61%
    15:00 +13°C° 0.2 mm 2 mps 623 mmHg 65%
    16:00 +12°C° 0.4 mm 2 mps 623 mmHg 70%
    17:00 +10°C° 0.4 mm 2 mps 623 mmHg 76%
    18:00 +10°C° 0.4 mm 1 mps 622 mmHg 81%
    19:00 +9°C° 0.1 mm 1 mps 622 mmHg 85%
    20:00 +6°C° 0.1 mm 2 mps 622 mmHg 88%
    21:00 +5°C° 0.1 mm 2 mps 622 mmHg 92%
    22:00 +5°C° 0 mm 2 mps 622 mmHg 91%
    23:00 +4°C° 0 mm 2 mps 621 mmHg 90%

    11 June, Thursday

    Time Temperature Precipitation Wind Pressure Humidity
    00:00 +4°C° 0 mm 2 mps 621 mmHg 90%
    01:00 +4°C° 0 mm 2 mps 621 mmHg 89%
    02:00 +4°C° 0 mm 2 mps 621 mmHg 88%
    03:00 +3°C° 0 mm 2 mps 620 mmHg 88%
    04:00 +4°C° 0 mm 2 mps 621 mmHg 87%
    05:00 +5°C° 0 mm 2 mps 621 mmHg 86%
    06:00 +5°C° 0 mm 2 mps 621 mmHg 85%
    07:00 +7°C° 0 mm 2 mps 622 mmHg 77%
    08:00 +9°C° 0 mm 2 mps 622 mmHg 70%
    09:00 +10°C° 0 mm 2 mps 623 mmHg 63%
    10:00 +12°C° 0.1 mm 2 mps 623 mmHg 63%
    11:00 +12°C° 0.1 mm 2 mps 623 mmHg 62%
    12:00 +12°C° 0.1 mm 2 mps 623 mmHg 61%
    13:00 +12°C° 0.2 mm 2 mps 622 mmHg 65%
    14:00 +12°C° 0.2 mm 2 mps 622 mmHg 69%
    15:00 +10°C° 0.2 mm 2 mps 621 mmHg 72%
    16:00 +10°C° 0.1 mm 2 mps 621 mmHg 75%
    17:00 +9°C° 0.1 mm 2 mps 621 mmHg 77%
    18:00 +9°C° 0.1 mm 2 mps 621 mmHg 79%
    19:00 +8°C° 0 mm 2 mps 621 mmHg 84%
    20:00 +7°C° 0 mm 2 mps 620 mmHg 88%
    21:00 +7°C° 0 mm 1 mps 620 mmHg 92%
    22:00 +7°C° 0 mm 1 mps 620 mmHg 91%
    23:00 +7°C° 0 mm 1 mps 620 mmHg 91%
    Show more